Regional Weather Roundup
Issued by NWS Wakefield, VA

Home | Current Version | Previous Version | Graphics & Text | Print | Product List | Glossary On
Versions: 1 2 3 4 5 6 7 8 9 10 11 12 13 14 15 16 17 18 19 20 21 22 23 24 25 26 27 28 29 30 31 32 33 34 35 36 37 38 39 40 41 42 43 44 45 46 47 48 49
000
ASUS41 KAKQ 281515
RWRAKQ

REGIONAL WEATHER ROUNDUP
NATIONAL WEATHER SERVICE WAKEFIELD VA
1100 AM EDT SAT MAY 28 2016

Note: "fair" indicates few or no clouds below 12,000 feet with no
significant weather and/or obstructions to visibility. * = Denotes
station may not report precipitation (e.g., rain,snow,etc.),
thunder or fog.

VAZ042-051-052>054-056-281600-
NORTHERN VIRGINIA

CITY           SKY/WX    TMP DP  RH WIND       PRES   REMARKS
WASH NATIONAL  FAIR      79  67  66 S9        30.16F
DULLES         FAIR      81  66  60 S6        30.16S
FORT BELVOIR   FAIR      80  66  63 SE5       30.16F
QUANTICO       FAIR      77  67  71 S7        30.17S
FREDERICKSBRG* FAIR      82  67  60 CALM      30.16S
STAFFORD*      FAIR      81  66  60 CALM      30.21R
WARRENTON      FAIR      83  63  50 CALM      30.16S
CULPEPER*      FAIR      83  70  64 S3        30.17S
MANASSAS*      SUNNY     81  68  65 SE5       30.16S
LEESBURG*      FAIR      84  72  65 S8        30.16S
WINCHESTER     FAIR      81  68  65 SW3       30.17R
FRONT ROYAL*   FAIR      81  70  69 CALM      30.16R
LURAY*         FAIR      81  70  69 SW3       30.18R
$$

VAZ048-049-060>072-079>083-281600-
CENTRAL AND SOUTH CENTRAL VIRGINIA

CITY           SKY/WX    TMP DP  RH WIND       PRES   REMARKS
RICHMOND       FAIR      79  63  57 SW5       30.19S
CHESTERFIELD*  FAIR      81  57  44 CALM      30.21R
PETERSBURG*    FAIR      81  63  54 SE5       30.21R
HANOVER        FAIR      82  62  50 S7        30.20R
TAPPAHANNOCK*  FAIR      81  62  50 SE3       30.20S
QUINTON*       FAIR      78  64  60 S5        30.19S
CHARLOTTSVILLE FAIR      82  68  62 S6        30.17S
GORDONSVILLE*  FAIR      81  69  66 S5        30.17R
ORANGE*        FAIR      82  68  61 NE6       30.19R
LOUISA*        FAIR      84  70  61 S6        30.18R
BUMPASS*       FAIR      80  67  64 CALM      30.18S
FARMVILLE*     FAIR      81  63  54 CALM      30.18R
CREWE*         FAIR      79  65  62 CALM      30.20R
FORT PICKETT*  NOT AVBL
CHASE CITY*    FAIR      77  60  55 CALM      30.20S
CLARKSVILLE*   FAIR      77  64  65 CALM      30.20R
SOUTH HILL*    FAIR      77  63  62 CALM      30.25S
LAWRENCEVILLE* FAIR      78  65  63 CALM      30.20S
EMPORIA*       FAIR      77  59  53 CALM      30.22R
$$

VAZ088>098-281600-
SOUTHEAST VIRGINIA

CITY           SKY/WX    TMP DP  RH WIND       PRES   REMARKS
NORFOLK        FAIR      80  61  52 VRB6      30.20S
VIRGINIA BEACH FAIR      85  62  46 VRB6      30.20R
NORFOLK NAVAL  FAIR      80  59  48 VRB3      30.22R
WEST POINT*    FAIR      79  60  52 SW3       30.21S
SALUDA*        FAIR      79  63  57 SW3       30.20S
NEWPORT NEWS   FAIR      78  61  55 W6        30.21R
LANGLEY AFB    FAIR      79  60  52 S5        30.21R
FORT EUSTIS    FAIR      78  63  61 SE5       30.19S
WILLIAMSBURG*  FAIR      81  64  57 S6        30.22R
HR EXEC AP*    FAIR      81  63  54 CALM      30.22S
FRANKLIN*      FAIR      78  60  53 S5        30.21S
US460-WAKEFLD  FAIR      80  57  45 VRB3      30.21R
$$

VAZ020-022-025-037-045-281600-
WEST CENTRAL AND SOUTHWEST VIRGINIA

CITY           SKY/WX    TMP DP  RH WIND       PRES   REMARKS
STAUNTON*      FAIR      78  66  66 SE3       30.21F
WAYNESBORO*    FAIR      79  64  61 CALM      30.21S
HOT SPRINGS VA PTSUNNY   69  59  71 CALM      30.31R
LYNCHBURG      FAIR      77  65  66 S3        30.21S
DANVILLE       FAIR      77  62  59 CALM      30.19F
SOUTH BOSTON*  FAIR      78  62  58 CALM      30.20R
MARTINSVILLE   FAIR      76  61  58 CALM      30.22S
ROANOKE        FAIR      79  64  60 VRB3      30.22S
BLACKSBURG     PTSUNNY   74  64  70 CALM      30.28S
DUBLIN*        PTSUNNY   75  66  71 CALM      30.26S
MARION*        CLOUDY    74  59  59 CALM      30.28S
HILLSVILLE*    FAIR      73  58  59 CALM      30.26R
RICHLANDS*     FAIR      74  63  68 SW6       30.26R
WISE*          FAIR      73  52  46 S7        30.27R
ABINGDON*      FAIR      78  58  50 SE5       30.23S
$$

MDZ021>025-VAZ099-100-281600-
SOUTHERN MARYLAND AND THE DELMARVA PENINSULA

CITY           SKY/WX    TMP DP  RH WIND       PRES   REMARKS
PATUXENT RIVER SUNNY     77  64  64 SE9       30.18S
BAY BRIDGE APT SUNNY     77  63  61 SE9       30.17S
LEONARDTOWN    SUNNY     79  61  53 SW5       30.20R
DOVER          SUNNY     82  68  63 SW6       30.16F
GEORGETOWN     SUNNY     82  64  54 SW8       30.19S
EASTON         SUNNY     81  68  65 SW6       30.21S
CAMBRIDGE      SUNNY     79  63  57 S5        30.18S
SALISBURY      SUNNY     80  62  54 SW7       30.19S
OCEAN CITY     SUNNY     73  65  75 S9        30.21R
WALLOPS ISLAND FAIR      77  65  66 S10       30.22S
ACCOMACK*      FAIR      79  57  47 CALM      30.21S
$$

NCZ012>017-030>032-281600-
NORTH CENTRAL AND EASTERN NORTH CAROLINA

CITY           SKY/WX    TMP DP  RH WIND       PRES   REMARKS
ROANOKE RAPIDS FAIR      77  63  61 S5        30.21R
RALEIGH        PTSUNNY   78  60  53 SE6       30.20S
ELIZABETH CITY SUNNY     79  66  64 E9        30.21S
AHOSKIE*       SUNNY     76  62  61 CALM      30.21R
EDENTON*       PTSUNNY   79  79  99 CALM      30.21R
CURRITUCK*     PTSUNNY   78  65  66 E5        30.21S
KILL DEVIL HLS SUNNY     79  66  63 E5        30.20S
MANTEO         NOT AVBL
CAPE HATTERAS  SUNNY     82  67  60 SE13      30.19S
TARBORO*       FAIR      80  66  60 CALM      30.21R
GOLDSBORO      MOSUNNY  N/A N/A N/A MISG        N/A
WASHINGTON     MOSUNNY   81  64  55 E5        30.19S
GREENVILLE     MOSUNNY   81  64  57 SE6       30.21R
NEW BERN       PTSUNNY   80  67  64 E7        30.19R
WILMINGTON     PTSUNNY   81  67  62 E13       30.16S
$$

VAZ048-281600-
ELSEWHERE

CITY           SKY/WX    TMP DP  RH WIND       PRES   REMARKS
HARRISBURG PA  MOSUNNY   82  69  64 SE3       30.14S
BALTIMORE      MOSUNNY   82  65  56 CALM      30.15F
ANNAPOLIS      SUNNY     73  66  78 SE13      30.16S
ANDREWS AFB    FAIR      82  66  59 S6        30.16S
PHILADELPHIA   MOSUNNY   81  64  56 SW7       30.16S
HENDERSON NC   SUNNY     76  60  57 CALM      30.21R
GREENSBORO     PTSUNNY   79  59  50 NE3       30.19S
ROCKY MOUNT    CLOUDY    79  65  62 VRB5      30.20R
$$

VAZ100-281600-
MARINE

STATION/POSITION TIME  TEMP    WIND        PRES    WAVE   SWELL
                       AIR SEA DIR/SP/G            HT/PER HT/PER
                 (UTC) (F)     (DEG/KT/KT) (MB)    (FT/S) (FT/S)
BRANDYWINE LGT   1400   68     190/  9/  9 1022.2R
CAPE MAY NJ      1400   72 67  190/  7/  9 1022.1R
LEWES DE         1400   78 60  220/  5/  9 1022.1R
15NM E FENWICK I 1450   65 61              1023.0R   2/ 5
OCEAN-CITY-INLET 1400   63 67  200/ 10/ 13 1023.2R
WACHAPREAGUE VA  1400   74 74  190/  7/  8 1022.6R
THOMAS POINT MD  1500   69 66  150/ 10/ 11 1023.0R
GOOSES REEF MD   1500   70 67  160/ 12/ 14 1022.8R   1/ 3
COVE POINT MD    1400   68     180/ 13/ 14 1022.6R
SOLOMONS ISLAND  1400   75 65  190/  4/  4   N/A
BISHOPS HEAD MD  1400   72 72  190/  8/ 10 1022.6R
PINEY POINT MD   1400          130/  4/  4   N/A
POTOMAC MD       1500   70 69  140/  6/  6 1021.4S   1
CAMBRIDGE MD     1400   78 66  190/  6/  9 1021.1R
LEWISETTA VA     1400   76 70  220/  6/  8 1021.8R
RAPPAHANNOCK LGT 1400          180/  8/  8 1023.5R
STINGRAY PT      1500   70 71  160/ 10/ 12 1023.3R   1
YORK RVR RNG VA  1400   73     160/  2/  3 1022.1S
YORKTOWN VA      1400   75 70  250/  5/  6 1022.3R
JAMESTOWN VA     1500   76 73  110/  2/  2   N/A     0
DOMINION TERM VA 1400   72     190/  2/  3 1022.8R
KIPTOPEKE VA     1400      68  190/  3/  3   N/A
CHES BAY BRIDGE  1400   70 69   50/  5/  5 1022.7R
CAPE HENRY VA    1400   72     120/  8/ 10   N/A
CHESAPEAKE LGHT  1400   69     150/  5/  5 1023.8R
WILLOUBY STN VA  1400   72     310/  1/  2 1023.8R
CAPE HENRY BUOY  1412      67                N/A     3/ 7
1ST LANDING BUOY 1500   69 70   90/  8/  8 1022.9R   2/ 4
CAPE CHARLES BUO 1426      68                N/A     2/ 8   2/ 8
OFFSHORE WE BUOY 1421      69                N/A     3/ 7   3/ 7
64NM E OF VA BCH 1450   67 62   60/  4/  6 1023.2R   3/ 8   3/ 8
DUCK PIER NC     1400   70 60   80/  7/  7 1022.3R
44100 DUCK FRF   1424      68                N/A     3/ 9
44056 DUCK FRF   1411      65                N/A     2/ 8
OREGON INLET NC  1400   73 72   60/  8/ 10 1022.5R
HATTERAS NC      1400   77 74  120/  7/ 10 1021.7R
DIAMOND SHLS NC  1450   77 78  100/ 12/ 16 1021.9R   4/ 8   3/ 8
CAPE LOOKOC1F1C2F2C3F3C4F4C5F5C6F6C7F7C8M1C9!


USA.gov is the U.S. government's official web portal to all federal, state and local government web resources and services.